Location: Hamburg
(53.5500°N, 10.0000°E)
Time: 21:45:26
(UTC+02:00)

Vanguard 1 Rocket - Visible Passes

Search period start: 26 May 2018 00:00
Search period end: 05 June 2018 00:00
Orbit: 652 x 4225 km, 34.3° (Epoch: 25 May)

Date Brightness Start Highest point End Pass type
(mag) Time Alt. Az. Time Alt. Az. Time Alt. Az.
26 May 10.6 02:22:46 10° WSW 02:40:30 45° S 03:03:51 10° ESE visible
26 May 10.4 22:50:06 10° S 23:01:06 26° SE 23:17:13 10° E visible
27 May 10.4 01:11:46 10° SW 01:27:18 42° SSE 01:49:49 10° ESE visible
27 May 10.7 03:37:09 10° WSW 03:55:58 42° SSW 04:18:37 10° SE visible
28 May 10.3 00:01:31 10° SW 00:14:44 37° SSE 00:35:02 10° E visible
28 May 10.6 02:25:23 10° WSW 02:42:30 44° S 03:05:38 10° ESE visible
28 May 10.3 22:52:06 10° SSW 23:02:57 29° SE 23:19:34 10° E visible
29 May 10.4 01:14:21 10° SW 01:29:21 42° S 01:51:41 10° ESE visible
29 May 10.8 03:39:55 10° WSW 03:57:52 39° SSW 04:20:01 10° SE visible
30 May 10.2 00:03:59 10° SW 00:16:46 38° SSE 00:37:00 10° ESE visible
30 May 10.5 02:28:08 10° WSW 02:44:32 42° S 03:07:12 10° SE visible
30 May 10.2 22:54:20 10° SSW 23:04:56 31° SSE 23:21:45 10° E visible
31 May 10.3 01:17:02 10° WSW 01:31:28 42° S 01:53:25 10° ESE visible
31 May 10.8 03:42:49 10° W 03:59:46 35° SSW 04:21:06 10° SSE visible
01 Jun 10.1 00:06:35 10° SW 00:18:56 39° SSE 00:38:52 10° ESE visible
01 Jun 10.5 02:30:59 10° WSW 02:46:37 39° SSW 03:08:35 10° SE visible
01 Jun 10.0 22:56:47 10° SSW 23:07:04 32° SSE 23:23:48 10° ESE visible
02 Jun 10.3 01:19:51 10° WSW 01:33:39 40° S 01:54:59 10° SE visible
02 Jun 10.8 03:45:55 10° W 04:01:42 31° SSW 04:21:50 10° SSE visible
03 Jun 10.1 00:09:20 10° SW 00:21:11 38° S 00:40:37 10° ESE visible
03 Jun 10.5 02:33:57 10° WSW 02:48:44 35° SSW 03:09:40 10° SE visible
03 Jun 10.0 22:59:24 10° SW 23:09:18 33° SSE 23:25:47 10° ESE visible
04 Jun 10.3 01:22:46 10° WSW 01:35:55 38° S 01:56:22 10° SE visible
04 Jun 10.8 03:49:16 10° WSW 04:03:40 27° SSW 04:22:04 10° SSE visible
